Location: Riverton
(43.0250°N, 108.3790°W)
Time: 07:32:15
(UTC-07:00)

Amateur Radio Satellites - All Passes

Search period start: 05 March 2015 07:02
Search period end: 06 March 2015 07:02
Location: Riverton, 43.0250°N, 108.3790°W

Satellite Date Start Highest point End Downlink Frequencies (MHz)
Time Altitude Azimuth
HO-68 05 Mar 07:22:46 07:24:38 11° 83° (E) 07:27:04 435.675
Cubesat XI-IV 05 Mar 07:36:38 07:41:29 34° 293° (WNW) 07:46:15 437.490
GONETS M04 05 Mar 07:37:00 07:44:25 31° 66° (ENE) 07:52:04
AIST 1 05 Mar 07:38:57 07:43:01 37° 284° (WNW) 07:47:08
STRAND 1 05 Mar 07:39:28 07:42:59 18° 270° (W) 07:46:19 437.568
CUTE-I 05 Mar 07:44:55 07:49:35 30° 294° (WNW) 07:54:07 437.470
RS-15 05 Mar 07:50:02 08:01:31 83° 55° (NE) 08:13:32 29.354- 29.394
O/OREOS (USA 219) 05 Mar 07:57:05 08:00:13 19° 102° (ESE) 08:03:31 437.305
AAUSAT CUBESAT 2 05 Mar 08:13:36 08:14:53 11° 88° (E) 08:16:24 437.432
SO-50 05 Mar 08:16:51 08:20:22 19° 37° (NE) 08:24:00 436.795
COMPASS 1 05 Mar 08:17:33 08:19:55 15° 90° (E) 08:22:27 437.405
ISS 05 Mar 08:31:48 08:35:01 90° 216° (SW) 08:38:16 145.825
GOMX 1 05 Mar 08:41:56 08:46:03 42° 97° (E) 08:50:01 467.674
SEEDS 05 Mar 08:48:02 08:52:00 39° 97° (E) 08:56:00 437.485
CINEMA 3 05 Mar 08:50:25 08:53:17 18° 91° (E) 08:56:16 145.822/145.860
BRITE-PL 05 Mar 08:51:45 08:56:16 84° 102° (ESE) 09:00:30 437.365/2234.400
CUBEBUG 2 05 Mar 08:53:31 08:54:15 11° 87° (E) 08:55:15 437.445
CANX-2 05 Mar 08:55:45 09:00:00 63° 100° (E) 09:04:14 2200.000
UNISAT 6 05 Mar 09:02:32 09:05:47 21° 67° (ENE) 09:09:04 437.425
DOVE 4 05 Mar 09:02:59 09:07:06 48° 99° (E) 09:11:07 437.250
DELFI C3 05 Mar 09:03:13 09:05:33 15° 90° (E) 09:08:04 145.870
DUCHIFAT 1 05 Mar 09:06:01 09:07:49 13° 63° (ENE) 09:09:49 145.980
HO-68 05 Mar 09:06:39 09:13:51 70° 103° (ESE) 09:21:02 435.675
CUTE 1.7 + AOD 2 05 Mar 09:13:55 09:18:11 89° 284° (WNW) 09:22:28 437.475
FUNcube-1 05 Mar 09:17:06 09:19:04 13° 89° (E) 09:21:14 145.935
ZACube-1 05 Mar 09:19:14 09:21:27 14° 90° (E) 09:23:52 437.345
UKube-1 05 Mar 09:21:32 09:23:37 14° 89° (E) 09:25:55 .
TIGRISAT 05 Mar 09:25:23 09:29:19 34° 70° (ENE) 09:33:15 435.000
POPSAT HIP 1 05 Mar 09:27:09 09:30:21 21° 67° (ENE) 09:33:38 437.405
POLYITAN 1 05 Mar 09:28:04 09:31:20 22° 67° (ENE) 09:34:42 437.675
GONETS M04 05 Mar 09:33:20 09:41:56 62° 268° (W) 09:50:31
O/OREOS (USA 219) 05 Mar 09:34:57 09:39:20 45° 298° (WNW) 09:43:46 437.305
ANTELSAT 05 Mar 09:40:18 09:44:32 51° 73° (ENE) 09:48:44 437.575/2403.000
UWE-3 05 Mar 09:43:51 09:47:36 33° 96° (E) 09:51:25 435.000/436.395/437.385
AAUSAT CUBESAT 2 05 Mar 09:46:52 09:51:02 63° 285° (WNW) 09:55:11 437.432
NANOSAT C BR1 05 Mar 09:48:22 09:52:15 34° 70° (ENE) 09:56:09 145.865
COMPASS 1 05 Mar 09:51:53 09:55:58 48° 287° (WNW) 10:00:02 437.405
SO-50 05 Mar 09:56:36 10:01:33 80° 238° (WSW) 10:06:29 436.795
Oscar 11 05 Mar 10:00:42 10:05:03 85° 100° (E) 10:09:24 145.826/435.025
50 SAT 05 Mar 10:01:07 10:03:16 14° 90° (E) 10:05:34 437.505
RS-15 05 Mar 10:03:35 10:12:59 29° 255° (WSW) 10:22:13 29.354- 29.394
ISS 05 Mar 10:09:09 10:11:48 23° 345° (NNW) 10:14:27 145.825
DANDE 05 Mar 10:14:14 10:16:00 16° 71° (ENE) 10:17:51 436.750
BUGSAT 1 05 Mar 10:16:29 10:20:38 52° 73° (ENE) 10:24:49 437.445
GOMX 1 05 Mar 10:20:56 10:23:55 18° 295° (WNW) 10:26:43 467.674
QB50P1 05 Mar 10:21:33 10:25:50 81° 76° (ENE) 10:30:08 145.935-145.965
SEEDS 05 Mar 10:24:30 10:27:37 20° 293° (WNW) 10:30:37 437.485
CUSAT 1 05 Mar 10:25:54 10:28:21 36° 77° (ENE) 10:30:55 437.405
QB50P2 05 Mar 10:26:28 10:30:46 88° 258° (WSW) 10:35:04 145.880/145.840
CINEMA 3 05 Mar 10:26:52 10:30:44 36° 289° (WNW) 10:34:32 145.822/145.860
CUBEBUG 2 05 Mar 10:27:24 10:31:32 65° 285° (WNW) 10:35:40 437.445
DX 1 05 Mar 10:30:06 10:34:30 80° 103° (ESE) 10:38:50 434.975-435.025
BRITE-PL 05 Mar 10:33:13 10:34:06 10° 301° (WNW) 10:34:45 437.365/2234.400
CANX-2 05 Mar 10:33:23 10:35:30 13° 296° (WNW) 10:37:26 2200.000
HUMSAT D 05 Mar 10:33:49 10:37:50 50° 99° (E) 10:41:52 437.325/437.525
DELFI C3 05 Mar 10:37:08 10:41:04 45° 287° (WNW) 10:44:58 145.870
UNISAT 6 05 Mar 10:38:19 10:42:24 37° 263° (W) 10:46:25 437.425
DUCHIFAT 1 05 Mar 10:38:56 10:43:12 66° 259° (WSW) 10:47:27 145.980
CUBEBUG 1 05 Mar 10:41:05 10:44:10 19° 91° (E) 10:47:22 437.445
DOVE 4 05 Mar 10:41:58 10:44:33 15° 296° (WNW) 10:46:57 437.250
AISAT 05 Mar 10:47:04 10:51:25 50° 100° (E) 10:55:43 437.250
FUNcube-1 05 Mar 10:51:45 10:55:49 52° 287° (WNW) 10:59:52 145.935
ZACube-1 05 Mar 10:54:10 10:58:11 48° 287° (WNW) 11:02:13 437.345
VELOX 1 05 Mar 10:55:06 10:59:31 60° 101° (E) 11:03:53 145.980
HO-68 05 Mar 10:55:19 11:01:02 26° 302° (WNW) 11:06:35 435.675
UKube-1 05 Mar 10:55:56 11:00:13 57° 288° (WNW) 11:04:27 .
POPSAT HIP 1 05 Mar 11:02:04 11:06:04 36° 263° (W) 11:10:02 437.405
TIGRISAT 05 Mar 11:02:46 11:06:12 22° 267° (W) 11:09:31 435.000
POLYITAN 1 05 Mar 11:03:09 11:07:07 35° 263° (W) 11:11:02 437.675
ANTELSAT 05 Mar 11:19:07 11:21:42 15° 270° (W) 11:24:05 437.575/2403.000
UWE-3 05 Mar 11:20:48 11:24:01 22° 293° (WNW) 11:27:11 435.000/436.395/437.385
ESTCUBE 1 05 Mar 11:21:55 11:26:25 57° 100° (E) 11:30:54 437.505/2401.250
NANOSAT C BR1 05 Mar 11:24:52 11:28:14 21° 267° (W) 11:31:30 145.865
50 SAT 05 Mar 11:34:46 11:38:33 44° 288° (WNW) 11:42:19 437.505
GONETS M04 05 Mar 11:35:00 11:37:10 11° 286° (WNW) 11:38:35
Oscar 11 05 Mar 11:39:50 11:40:39 10° 299° (WNW) 11:41:15 145.826/435.025
SO-50 05 Mar 11:40:52 11:41:26 10° 253° (WSW) 11:41:39 436.795
Oscar 19 05 Mar 11:44:44 11:48:35 22° 64° (ENE) 11:52:33 437.125/150
ISS 05 Mar 11:46:42 11:49:02 18° 5° (N) 11:51:22 145.825
BUGSAT 1 05 Mar 11:54:03 11:56:30 14° 270° (W) 11:58:46 437.445
DX 1 05 Mar 12:08:41 12:10:11 11° 299° (WNW) 12:11:28 434.975-435.025
HUMSAT D 05 Mar 12:10:52 12:13:17 15° 295° (WNW) 12:15:33 437.325/437.525
CUBEBUG 1 05 Mar 12:16:37 12:20:47 41° 289° (WNW) 12:24:52 437.445
AISAT 05 Mar 12:24:43 12:27:40 17° 296° (WNW) 12:30:30 437.250
TISAT 1 05 Mar 12:29:29 12:33:42 64° 101° (E) 12:37:52 437.305
VELOX 1 05 Mar 12:33:04 12:35:40 15° 297° (WNW) 12:38:05 145.980
ITUPSAT 1 05 Mar 12:34:20 12:35:47 11° 87° (E) 12:37:31 437.325
SPROUT 05 Mar 12:36:29 12:40:48 87° 103° (ESE) 12:45:05 437.525
ESTCUBE 1 05 Mar 13:00:02 13:02:54 16° 296° (WNW) 13:05:36 437.505/2401.250
Gurwin Techsat 1B 05 Mar 13:18:14 13:23:09 41° 69° (ENE) 13:28:09 435.225
Oscar 19 05 Mar 13:22:41 13:27:39 49° 261° (W) 13:32:38 437.125/150
ISS 05 Mar 13:23:01 13:26:05 39° 25° (NNE) 13:29:10 145.825
ITAMSAT 1 05 Mar 13:27:34 13:32:44 66° 73° (ENE) 13:37:57 435.822/435.867
SWISSCUBE 05 Mar 13:32:11 13:36:52 49° 99° (E) 13:41:32 437.505
BEESAT 05 Mar 13:40:12 13:44:55 54° 100° (E) 13:49:38 436.000
HORYU 2 05 Mar 14:05:26 14:09:12 28° 68° (ENE) 14:13:01 437.375
TISAT 1 05 Mar 14:07:03 14:09:02 13° 297° (WNW) 14:10:51 437.305
ITUPSAT 1 05 Mar 14:09:32 14:14:24 80° 284° (WNW) 14:19:12 437.325
AO-7 05 Mar 14:14:56 14:22:25 40° 60° (ENE) 14:29:59 29.400- 29.500
YUBILEINY 05 Mar 14:32:04 14:38:11 23° 80° (E) 14:44:41 435.215
STARS 05 Mar 14:37:21 14:41:03 26° 95° (E) 14:44:46 437.465
KKS-1 05 Mar 14:37:58 14:42:11 41° 98° (E) 14:46:23 437.445
JAS-2 05 Mar 14:57:46 15:02:47 34° 64° (ENE) 15:08:27 435.910
Gurwin Techsat 1B 05 Mar 14:58:49 15:03:18 27° 267° (W) 15:07:44 435.225
ISS 05 Mar 14:59:35 15:02:27 29° 222° (SW) 15:05:19 145.825
ITAMSAT 1 05 Mar 15:09:31 15:12:48 16° 271° (W) 15:15:53 435.822/435.867
SWISSCUBE 05 Mar 15:10:52 15:14:26 20° 296° (WNW) 15:17:51 437.505
BEESAT 05 Mar 15:19:03 15:22:24 19° 296° (WNW) 15:25:36 436.000
HORYU 2 05 Mar 15:41:58 15:45:50 28° 265° (W) 15:49:39 437.375
BEESAT 2 05 Mar 15:45:46 15:48:28 18° 112° (ESE) 15:51:19 435.950
ITUPSAT 1 05 Mar 15:50:39 15:51:34 10° 301° (WNW) 15:52:13 437.325
CUTE-I 05 Mar 15:52:41 15:53:24 10° 56° (NE) 15:54:25 437.470
AUBIESAT-1 05 Mar 16:01:09 16:03:52 16° 97° (E) 16:06:51 437.475
M-CUBED/EXP-1 PRIME 05 Mar 16:01:43 16:04:44 18° 98° (E) 16:08:01 437.505
AO-7 05 Mar 16:06:57 16:15:04 52° 259° (W) 16:23:07 29.400- 29.500
MOZHAYETS 4 05 Mar 16:12:37 16:16:16 23° 92° (E) 16:20:01
STARS 05 Mar 16:13:41 16:17:32 29° 291° (WNW) 16:21:18 437.465
KKS-1 05 Mar 16:15:17 16:18:35 20° 295° (WNW) 16:21:46 437.445
YUBILEINY 05 Mar 16:25:23 16:34:08 78° 280° (W) 16:43:00 435.215
VERMONT LUNAR 05 Mar 16:29:03 16:32:03 27° 159° (SSE) 16:35:05 437.305
JAS-2 05 Mar 16:42:40 16:47:52 37° 266° (W) 16:53:36 435.910
BEESAT 3 05 Mar 16:52:53 16:56:59 81° 304° (WNW) 17:01:10 437.485
PHONESAT 2.4 05 Mar 16:56:21 16:59:20 24° 157° (SSE) 17:02:20 2401.200-2431.200
Cubesat XI-IV 05 Mar 17:19:22 17:24:37 59° 72° (ENE) 17:29:57 437.490
BEESAT 2 05 Mar 17:22:19 17:26:19 48° 309° (NW) 17:30:23 435.950
CUTE-I 05 Mar 17:27:17 17:32:36 68° 73° (ENE) 17:37:59 437.470
AUBIESAT-1 05 Mar 17:34:44 17:38:58 55° 292° (WNW) 17:43:30 437.475
M-CUBED/EXP-1 PRIME 05 Mar 17:35:40 17:39:51 48° 292° (WNW) 17:44:17 437.505
AIST 2 05 Mar 17:37:50 17:42:06 86° 303° (WNW) 17:46:26 435.215
PRISM 05 Mar 17:42:35 17:44:41 14° 90° (E) 17:46:58 437.425
AIST 1 05 Mar 17:44:51 17:49:13 57° 79° (E) 17:53:32
MOZHAYETS 4 05 Mar 17:49:21 17:53:39 37° 289° (WNW) 17:57:54
HO-68 05 Mar 17:54:00 17:56:24 12° 49° (NE) 17:59:10 435.675
O/OREOS (USA 219) 05 Mar 18:04:42 18:09:05 43° 61° (ENE) 18:13:27 437.305
VERMONT LUNAR 05 Mar 18:06:13 18:09:38 55° 176° (S) 18:13:05 437.305
STRAND 1 05 Mar 18:08:58 18:12:24 18° 90° (E) 18:16:00 437.568
CUBESAT XI-V 05 Mar 18:20:26 18:24:51 38° 97° (E) 18:29:14 437.345
BRITE-PL 05 Mar 18:26:39 18:29:45 16° 63° (ENE) 18:32:58 437.365/2234.400
YUBILEINY 05 Mar 18:27:12 18:32:48 17° 304° (NW) 18:37:59 435.215
BEESAT 3 05 Mar 18:33:49 18:35:49 13° 325° (NW) 18:37:43 437.485
PHONESAT 2.4 05 Mar 18:33:52 18:37:25 53° 173° (S) 18:40:59 2401.200-2431.200
Cubesat XI-IV 05 Mar 19:01:23 19:05:12 19° 270° (W) 19:08:51 437.490
PCSat 05 Mar 19:02:51 19:06:47 21° 108° (ESE) 19:10:54 145.827
CUTE-I 05 Mar 19:09:54 19:13:17 16° 271° (W) 19:16:27 437.470
COMPASS 1 05 Mar 19:11:07 19:12:50 13° 64° (ENE) 19:14:44 437.405
PRISM 05 Mar 19:16:26 19:20:35 54° 287° (WNW) 19:24:41 437.425
AIST 2 05 Mar 19:19:02 19:21:25 14° 324° (NW) 19:23:42 435.215
AIST 1 05 Mar 19:24:19 19:26:26 13° 275° (W) 19:28:19
HO-68 05 Mar 19:35:51 19:42:47 57° 68° (ENE) 19:49:47 435.675
SEEDS 05 Mar 19:41:23 19:45:03 31° 70° (ENE) 19:48:47 437.485
VERMONT LUNAR 05 Mar 19:43:59 19:47:20 44° 193° (SSW) 19:50:41 437.305
O/OREOS (USA 219) 05 Mar 19:44:50 19:48:15 20° 258° (WSW) 19:51:30 437.305
STRAND 1 05 Mar 19:46:59 19:52:02 56° 288° (WNW) 19:57:03 437.568
CANX-2 05 Mar 19:49:40 19:53:44 50° 73° (ENE) 19:57:50 2200.000
GOMX 1 05 Mar 19:49:57 19:55:08 57° 74° (ENE) 20:00:04 467.674
CUBEBUG 2 05 Mar 19:52:50 19:54:33 12° 63° (ENE) 19:56:26 437.445
CINEMA 3 05 Mar 19:53:01 19:56:36 23° 68° (ENE) 20:00:10 145.822/145.860
DELFI C3 05 Mar 19:53:36 19:54:58 12° 63° (ENE) 19:56:31 145.870
CUBESAT XI-V 05 Mar 19:58:19 20:02:07 24° 293° (WNW) 20:05:48 437.345
BRITE-PL 05 Mar 20:02:08 20:07:45 80° 257° (WSW) 20:13:06 437.365/2234.400
CUTE 1.7 + AOD 2 05 Mar 20:07:36 20:11:48 73° 76° (ENE) 20:16:01 437.475
DOVE 4 05 Mar 20:08:47 20:13:46 60° 74° (ENE) 20:18:30 437.250
PHONESAT 2.4 05 Mar 20:12:09 20:15:41 50° 190° (S) 20:19:13 2401.200-2431.200
FUNcube-1 05 Mar 20:14:34 20:16:38 14° 64° (ENE) 20:18:52 145.935
ZACube-1 05 Mar 20:16:50 20:19:09 15° 65° (ENE) 20:21:36 437.345
UKube-1 05 Mar 20:17:48 20:20:09 15° 63° (ENE) 20:22:39 .
AAUSAT CUBESAT 2 05 Mar 20:38:34 20:42:42 84° 257° (WSW) 20:46:53 437.432
GONETS M04 05 Mar 20:39:53 20:47:13 33° 85° (E) 20:54:45
UWE-3 05 Mar 20:42:05 20:45:58 32° 70° (ENE) 20:49:48 435.000/436.395/437.385
COMPASS 1 05 Mar 20:43:58 20:48:05 63° 259° (W) 20:52:14 437.405
PCSat 05 Mar 20:44:30 20:49:50 57° 305° (NW) 20:55:13 145.827
50 SAT 05 Mar 20:50:16 20:51:21 11° 64° (ENE) 20:52:38 437.505
Oscar 11 05 Mar 20:56:13 21:00:30 74° 75° (ENE) 21:04:49 145.826/435.025
SEEDS 05 Mar 21:17:35 21:20:57 23° 267° (W) 21:24:14 437.485
VERMONT LUNAR 05 Mar 21:22:28 21:24:46 17° 208° (SSW) 21:27:02 437.305
HO-68 05 Mar 21:24:51 21:30:56 29° 267° (W) 21:36:54 435.675
DELFI C3 05 Mar 21:25:42 21:29:42 65° 259° (W) 21:33:44 145.870
CUBEBUG 2 05 Mar 21:26:20 21:30:48 71° 259° (WSW) 21:35:08 437.445
DX 1 05 Mar 21:26:23 21:30:47 78° 74° (ENE) 21:35:12 434.975-435.025
HUMSAT D 05 Mar 21:26:46 21:30:41 40° 72° (ENE) 21:34:35 437.325/437.525
CANX-2 05 Mar 21:27:37 21:30:02 14° 271° (W) 21:32:18 2200.000
CINEMA 3 05 Mar 21:29:14 21:33:39 39° 263° (W) 21:37:53 145.822/145.860
GOMX 1 05 Mar 21:29:50 21:33:36 19° 269° (W) 21:37:04 467.674
CUBEBUG 1 05 Mar 21:38:31 21:41:38 20° 66° (ENE) 21:44:53 437.445
AISAT 05 Mar 21:45:48 21:50:09 52° 73° (ENE) 21:54:33 437.250
BRITE-PL 05 Mar 21:45:51 21:47:05 10° 275° (W) 21:47:55 437.365/2234.400
FUNcube-1 05 Mar 21:48:18 21:52:35 60° 259° (W) 21:56:49 145.935
DOVE 4 05 Mar 21:48:39 21:51:54 16° 270° (W) 21:54:52 437.250
ZACube-1 05 Mar 21:50:54 21:55:10 56° 260° (W) 21:59:21 437.345
PHONESAT 2.4 05 Mar 21:50:55 21:53:44 21° 205° (SSW) 21:56:30 2401.200-2431.200
UKube-1 05 Mar 21:51:35 21:55:53 59° 259° (W) 22:00:12 .
VELOX 1 05 Mar 21:53:33 21:57:58 60° 73° (ENE) 22:02:25 145.980
QB50P1 05 Mar 22:08:02 22:09:37 12° 88° (E) 22:11:25 145.935-145.965
QB50P2 05 Mar 22:12:38 22:14:50 14° 89° (E) 22:17:11 145.880/145.840
RS-15 05 Mar 22:15:03 22:25:09 48° 112° (ESE) 22:35:30 29.354- 29.394
UWE-3 05 Mar 22:18:58 22:22:35 24° 266° (W) 22:26:01 435.000/436.395/437.385
50 SAT 05 Mar 22:21:56 22:25:53 66° 259° (W) 22:29:50 437.505
ESTCUBE 1 05 Mar 22:22:23 22:26:50 59° 73° (ENE) 22:31:19 437.505/2401.250
DUCHIFAT 1 05 Mar 22:24:02 22:26:53 18° 91° (E) 22:29:52 145.980
UNISAT 6 05 Mar 22:29:01 22:33:03 38° 98° (E) 22:37:10 437.425
PCSat 05 Mar 22:32:02 22:34:33 13° 327° (NNW) 22:36:53 145.827
GONETS M04 05 Mar 22:35:13 22:43:43 56° 285° (WNW) 22:52:14
Oscar 11 05 Mar 22:36:43 22:37:18 10° 273° (W) 22:37:37 145.826/435.025
POPSAT HIP 1 05 Mar 22:46:28 22:50:15 32° 96° (E) 22:54:03 437.405
POLYITAN 1 05 Mar 22:47:44 22:51:35 34° 97° (E) 22:55:26 437.675
TIGRISAT 05 Mar 22:52:12 22:56:29 68° 101° (ESE) 23:00:49 435.000
HUMSAT D 05 Mar 23:03:49 23:06:41 17° 269° (W) 23:09:24 437.325/437.525
ANTELSAT 05 Mar 23:07:48 23:12:07 79° 284° (WNW) 23:16:30 437.575/2403.000
NANOSAT C BR1 05 Mar 23:07:58 23:12:08 56° 100° (E) 23:16:15 145.865
CUBEBUG 1 05 Mar 23:13:29 23:17:45 44° 262° (W) 23:22:01 437.445
TISAT 1 05 Mar 23:22:33 23:26:44 54° 73° (ENE) 23:30:55 437.305
AISAT 05 Mar 23:24:16 23:27:08 16° 270° (W) 23:29:50 437.250
DANDE 05 Mar 23:25:08 23:31:13 47° 98° (E) 23:35:50 436.750
SPROUT 05 Mar 23:31:20 23:35:40 75° 75° (ENE) 23:40:00 437.525
VELOX 1 05 Mar 23:32:39 23:35:01 14° 271° (W) 23:37:11 145.980
BUGSAT 1 05 Mar 23:33:24 23:37:34 81° 102° (ESE) 23:41:39 437.445
CUSAT 1 05 Mar 23:34:05 23:39:56 69° 99° (E) 23:44:16 437.405
BEESAT 3 05 Mar 23:34:46 23:36:40 13° 35° (NE) 23:38:42 437.485
ITUPSAT 1 05 Mar 23:41:42 23:44:35 17° 62° (ENE) 23:47:39 437.325
QB50P1 05 Mar 23:41:48 23:46:00 60° 286° (WNW) 23:50:07 145.935-145.965
QB50P2 05 Mar 23:47:00 23:51:08 51° 287° (WNW) 23:55:13 145.880/145.840
DUCHIFAT 1 05 Mar 23:59:00 00:02:57 39° 289° (WNW) 00:06:51 145.980
ESTCUBE 1 06 Mar 00:01:38 00:04:11 14° 271° (W) 00:06:31 437.505/2401.250
BEESAT 2 06 Mar 00:03:40 00:06:38 19° 41° (NE) 00:09:39 435.950
UNISAT 6 06 Mar 00:06:25 00:09:40 20° 293° (WNW) 00:12:49 437.425
SO-50 06 Mar 00:12:39 00:16:27 27° 114° (ESE) 00:20:27 436.795
AIST 2 06 Mar 00:21:45 00:23:55 14° 35° (NE) 00:26:11 435.215
POPSAT HIP 1 06 Mar 00:22:39 00:26:02 23° 293° (WNW) 00:29:18 437.405
POLYITAN 1 06 Mar 00:24:03 00:27:22 22° 293° (WNW) 00:30:34 437.675
RS-15 06 Mar 00:26:48 00:37:28 55° 315° (NW) 00:48:20 29.354- 29.394
TIGRISAT 06 Mar 00:30:52 00:32:47 13° 297° (WNW) 00:34:32 435.000
SWISSCUBE 06 Mar 00:39:37 00:44:20 63° 73° (ENE) 00:49:06 437.505
GONETS M04 06 Mar 00:40:37 00:43:11 11° 311° (NW) 00:45:07
YUBILEINY 06 Mar 00:41:18 00:43:40 11° 50° (NE) 00:46:42 435.215
NANOSAT C BR1 06 Mar 00:45:15 00:47:36 14° 296° (WNW) 00:49:47 145.865
BEESAT 06 Mar 00:47:32 00:52:17 69° 73° (ENE) 00:57:04 436.000
TISAT 1 06 Mar 01:00:36 01:02:57 14° 271° (W) 01:05:06 437.305
DANDE 06 Mar 01:09:55 01:14:34 22° 287° (WNW) 01:18:15 436.750
BEESAT 3 06 Mar 01:11:19 01:15:29 82° 56° (NE) 01:19:34 437.485
SPROUT 06 Mar 01:11:41 01:12:22 10° 273° (W) 01:12:46 437.525
BUGSAT 1 06 Mar 01:12:07 01:12:29 10° 299° (WNW) 01:12:37 437.445
ITUPSAT 1 06 Mar 01:17:18 01:22:02 62° 258° (WSW) 01:26:50 437.325
CUSAT 1 06 Mar 01:20:22 01:22:52 13° 290° (WNW) 01:24:54 437.405
Oscar 19 06 Mar 01:33:03 01:38:05 54° 100° (E) 01:43:08 437.125/150
Gurwin Techsat 1B 06 Mar 01:34:46 01:37:36 15° 88° (E) 01:40:40 435.225
STARS 06 Mar 01:35:25 01:39:08 27° 68° (ENE) 01:42:55 437.465
KKS-1 06 Mar 01:37:01 01:41:14 43° 71° (ENE) 01:45:30 437.445
ITAMSAT 1 06 Mar 01:40:19 01:44:13 22° 92° (E) 01:48:15 435.822/435.867
BEESAT 2 06 Mar 01:41:05 01:45:12 57° 240° (WSW) 01:49:12 435.950
SO-50 06 Mar 01:52:27 01:56:50 40° 312° (NW) 02:01:23 436.795
AIST 2 06 Mar 01:58:57 02:03:16 83° 56° (NE) 02:07:28 435.215
SWISSCUBE 06 Mar 02:19:56 02:22:43 15° 271° (W) 02:25:17 437.505
BEESAT 06 Mar 02:28:20 02:30:43 13° 272° (W) 02:32:51 436.000
YUBILEINY 06 Mar 02:34:28 02:43:09 56° 75° (ENE) 02:51:48 435.215
RS-15 06 Mar 02:44:19 02:53:07 26° 347° (NNW) 03:02:01 29.354- 29.394
AUBIESAT-1 06 Mar 02:51:23 02:53:45 18° 61° (ENE) 02:56:18 437.475
M-CUBED/EXP-1 PRIME 06 Mar 02:52:26 02:55:00 21° 62° (ENE) 02:57:45 437.505
STARS 06 Mar 03:11:40 03:15:33 29° 264° (W) 03:19:25 437.465
Gurwin Techsat 1B 06 Mar 03:12:55 03:18:14 72° 287° (WNW) 03:23:32 435.225
Oscar 19 06 Mar 03:13:19 03:17:06 20° 297° (WNW) 03:20:44 437.125/150
KKS-1 06 Mar 03:14:53 03:18:08 19° 268° (W) 03:21:15 437.445
MOZHAYETS 4 06 Mar 03:15:46 03:19:25 25° 67° (ENE) 03:23:09
ITAMSAT 1 06 Mar 03:19:00 03:24:03 49° 290° (WNW) 03:29:02 435.822/435.867
HORYU 2 06 Mar 03:31:40 03:36:00 49° 100° (E) 03:40:21 437.375
AIST 2 06 Mar 03:40:48 03:41:16 10° 252° (WSW) 03:41:30 435.215
PCSat 06 Mar 03:48:37 03:53:01 25° 44° (NE) 03:57:29 145.827
JAS-2 06 Mar 03:49:04 03:55:50 35° 93° (E) 04:02:56 435.910
AO-7 06 Mar 04:07:05 04:15:09 53° 101° (E) 04:23:12 29.400- 29.500
AUBIESAT-1 06 Mar 04:25:36 04:28:31 27° 259° (W) 04:31:33 437.475
M-CUBED/EXP-1 PRIME 06 Mar 04:27:11 04:29:55 23° 260° (W) 04:32:45 437.505
YUBILEINY 06 Mar 04:31:56 04:39:38 34° 275° (W) 04:47:05 435.215
PRISM 06 Mar 04:34:50 04:36:35 13° 63° (ENE) 04:38:31 437.425
MOZHAYETS 4 06 Mar 04:52:18 04:56:30 35° 264° (W) 05:00:42
Gurwin Techsat 1B 06 Mar 04:56:00 04:57:23 11° 303° (WNW) 04:58:29 435.225
RS-15 06 Mar 05:01:01 05:10:18 29° 21° (NNE) 05:20:04 29.354- 29.394
HORYU 2 06 Mar 05:09:18 05:12:20 18° 296° (WNW) 05:15:14 437.375
CUBESAT XI-V 06 Mar 05:24:41 05:29:04 41° 71° (ENE) 05:33:32 437.345
STRAND 1 06 Mar 05:25:27 05:29:51 30° 67° (ENE) 05:34:21 437.568
PCSat 06 Mar 05:31:31 05:36:51 59° 244° (WSW) 05:42:09 145.827
JAS-2 06 Mar 05:33:46 05:41:04 54° 290° (WNW) 05:48:38 435.910
Cubesat XI-IV 06 Mar 05:36:32 05:40:32 22° 91° (E) 05:44:41 437.490
CUTE-I 06 Mar 05:44:08 05:48:27 25° 93° (E) 05:52:51 437.470
AO-7 06 Mar 06:00:16 06:07:46 38° 300° (WNW) 06:15:08 29.400- 29.500
PRISM 06 Mar 06:07:29 06:11:36 64° 258° (WSW) 06:15:47 437.425
AIST 1 06 Mar 06:15:32 06:19:24 32° 91° (E) 06:23:21
GONETS M04 06 Mar 06:48:50 06:54:00 17° 56° (ENE) 06:59:39
